Regional Weather Roundup
Issued by NWS Sioux Falls, SD

Home | Current Version | Previous Version | Text Only | Print | Product List | Glossary On
Versions: 1 2 3 4 5 6 7 8 9 10 11 12 13 14 15 16 17 18 19 20 21 22 23 24 25 26 27 28 29 30 31 32 33 34 35 36 37 38 39 40 41 42 43 44 45 46 47 48 49 50
000
ASUS43 KFSD 231110
RWRFSD

WEATHER ROUNDUP FOR SE SOUTH DAKOTA/SW MINNESOTA/NW IOWA
NATIONAL WEATHER SERVICE SIOUX FALLS SD
600 AM CDT WED JUL 23 2014

NOTE: "FAIR" INDICATES FEW OR NO CLOUDS BELOW 12,000 FEET WITH NO
SIGNIFICANT WEATHER AND OR OBSTRUCTIONS TO VISIBILITY.


SDZ038>040-050-052>070-231200-
SOUTHEAST SOUTH DAKOTA

CITY           SKY/WX    TMP DP  RH WIND       PRES   REMARKS
CHAMBERLAIN    CLOUDY    61  58  90 E6        30.28R
HURON          PTCLDY    60  56  86 E3        30.27R
MADISON        FAIR      55  55 100 NE3       30.29R
MITCHELL       MOCLDY    62  58  86 CALM      30.26R
SIOUX FALLS    PTCLDY    58  54  86 N5        30.27R
WINNER         FAIR      65  59  81 SW6       30.29R
YANKTON        PTCLDY    61  55  82 NE7       30.25S
$$

MNZ071-072-080-081-089-090-097-098-231200-
SOUTHWEST MINNESOTA

CITY           SKY/WX    TMP DP  RH WIND       PRES   REMARKS
FAIRMONT       CLEAR     55  52  88 N8        30.23R
JACKSON        PTCLDY    55  52  88 NW5       30.26R
LUVERNE        CLEAR     61  54  77 CALM      30.26S
MARSHALL       CLEAR     55  52  88 W3        30.26R
MONTEVIDEO     CLEAR     57  54  88 CALM      30.28R
PIPESTONE      CLEAR     57  54  88 NE5       30.27S
REDWOOD FALLS  CLEAR     60  54  80 N7        30.26R
TRACY          CLEAR     58  55  90 NW5       30.27R
WINDOM         CLEAR     55  54  94 N5        30.26R
WORTHINGTON    PTCLDY    55  52  88 N7        30.27R
$$

IAZ001>003-012>014-020>022-031-032-NEZ013-014-SDZ071-231200-
NORTHWEST IOWA

CITY           SKY/WX    TMP DP  RH WIND       PRES   REMARKS
CHEROKEE       CLEAR     59  58  97 N5        30.23R
DENISON        CLEAR     61  57  88 CALM      30.20R
ESTHERVILLE    PTCLDY    56  53  90 N7        30.24R
LE MARS        CLEAR     57  55  94 NW3       30.25R
ORANGE CITY    CLEAR     63  54  72 NE5       30.25R
SHELDON        PTCLDY    55  55 100 NE3       30.24R
SIOUX CITY     CLEAR     63  56  78 NE3       30.24R
SPENCER        PTCLDY    58  55  90 N6        30.24R
STORM LAKE     CLEAR     63  59  88 NE9       30.23R
$$

ABBREVIATIONS USED IN REMARKS
   TC - TEMPERATURE IN CELSIUS
  WCI - WIND CHILL INDEX
   HX - HEAT INDEX
  VSB - VISIBILITY



USA.gov is the U.S. government's official web portal to all federal, state and local government web resources and services.